Weather History for Rolla, ND

Change the Weather History Date:

Monday, December 30, 2013

  Actual Average (KRUG) Record (KRUG)
Temperature  
Mean Temperature -10 °F -  
Max Temperature -2 °F 14 °F 39 °F (1980)
Min Temperature -18 °F -3 °F -37 °F (1990)
Degree Days  
Heating Degree Days 75    
Moisture  
Dew Point -14 °F    
Average Humidity 76    
Maximum Humidity 85    
Minimum Humidity 59    
Precipitation  
Precipitation 0.07 in - - ()
Sea Level Pressure  
Sea Level Pressure 30.09 in    
Wind  
Wind Speed 7 mph (NNW)    
Max Wind Speed 14 mph    
Max Gust Speed -    
Visibility 10 miles    
Events Rain , Snow    
Averages and records for this station are not official NWS values.
T = Trace of Precipitation, MM = Missing Value Source: NWS Daily Summary

Daily Weather History Graph

Daily Weather History Graph

Search for Another Location

Airport:

Trip Planner

Search our weather history database for the weather conditions in past years. The results will help you decide how hot, cold, wet, or windy it might be!

Date:

Astronomy

Dec. 30, 2013 Rise Set
Actual Time 8:32 AM CST 4:50 PM CST
Civil Twilight 7:54 AM CST 5:27 PM CST
Nautical Twilight 7:14 AM CST 6:08 PM CST
Astronomical Twilight 6:36 AM CST 6:46 PM CST
Moon 6:19 AM CST (12/30) 3:29 PM CST (12/30)
Length of Visible Light 9h 32m
Length of Day
8h 18m
Waning Crescent, 4% of the Moon is Illuminated
Dec 30
Waning Crescent
Jan 1
New
Jan 7
First Quarter
Jan 15
Full
Jan 23
Last Quarter

Hourly Weather History & Observations

Time (CST) Temp. Windchill Dew Point Humidity Pressure Visibility Wind Dir Wind Speed Gust Speed Precip Events Conditions
12:15 AM -2.2 °F -10.4 °F -7.6 °F 78% 29.99 in 10.0 mi South 3.5 mph - N/A   Overcast
12:35 AM -4.0 °F -14.6 °F -7.6 °F 85% 29.98 in 10.0 mi SSE 4.6 mph - N/A   Overcast
12:55 AM -4.0 °F -12.4 °F -7.6 °F 85% 29.98 in 10.0 mi SSE 3.5 mph - N/A   Overcast
1:15 AM -2.2 °F - -7.6 °F 78% 29.98 in 10.0 mi Calm Calm - N/A   Mostly Cloudy
1:35 AM -2.2 °F - -7.6 °F 78% 29.98 in 10.0 mi Calm Calm - N/A   Overcast
1:55 AM -2.2 °F -10.4 °F -7.6 °F 78% 29.98 in 10.0 mi ENE 3.5 mph - N/A   Overcast
2:15 AM -4.0 °F -17.8 °F -7.6 °F 85% 29.99 in 9.0 mi NE 6.9 mph - N/A Snow Light Snow
2:35 AM -4.0 °F -17.8 °F -7.6 °F 85% 29.99 in 5.0 mi ENE 6.9 mph - N/A Snow Light Snow
2:55 AM -4.0 °F -16.3 °F -7.6 °F 85% 30.00 in 7.0 mi ENE 5.8 mph - 0.01 in Snow Light Snow
3:15 AM -4.0 °F -14.6 °F -7.6 °F 85% 30.00 in 10.0 mi NE 4.6 mph - N/A Snow Light Snow
3:35 AM -2.2 °F -12.5 °F -7.6 °F 78% 30.00 in 10.0 mi NE 4.6 mph - N/A   Overcast
3:55 AM -2.2 °F -16.8 °F -7.6 °F 78% 29.99 in 10.0 mi NE 8.1 mph - N/A Snow Light Snow
4:15 AM -4.0 °F -20.2 °F -7.6 °F 85% 30.01 in 7.0 mi NNE 9.2 mph - N/A Snow Light Snow
4:35 AM -4.0 °F -21.2 °F -9.4 °F 78% 30.02 in 7.0 mi NE 10.4 mph - 0.01 in Snow Light Snow
4:55 AM -4.0 °F -21.2 °F -9.4 °F 78% 30.02 in 3.0 mi NNE 10.4 mph - 0.03 in Snow Light Snow
5:15 AM -4.0 °F -21.2 °F -9.4 °F 78% 30.03 in 4.0 mi NNE 10.4 mph - N/A Snow Light Snow
5:35 AM -4.0 °F -21.2 °F -9.4 °F 78% 30.03 in 5.0 mi NNE 10.4 mph - 0.02 in Snow Light Snow
5:55 AM -4.0 °F -20.2 °F -9.4 °F 78% 30.03 in 10.0 mi NNE 9.2 mph - 0.02 in Rain Light Freezing Rain
6:15 AM -4.0 °F -23.0 °F -9.4 °F 78% 30.04 in 8.0 mi NNE 12.7 mph - N/A Rain Light Freezing Rain
6:35 AM -5.8 °F -24.4 °F -11.2 °F 77% 30.05 in 7.0 mi NNE 11.5 mph - N/A Rain Light Freezing Rain
6:55 AM -7.6 °F -26.6 °F - N/A% 30.05 in 10.0 mi NNE 11.5 mph - 0.01 in Rain Light Freezing Rain
7:15 AM -7.6 °F -28.3 °F -13.0 °F 77% 30.07 in 10.0 mi North 13.8 mph - N/A   Mostly Cloudy
7:35 AM -9.4 °F -28.9 °F -13.0 °F 84% 30.07 in 10.0 mi North 11.5 mph - N/A   Overcast
7:55 AM -9.4 °F -28.9 °F -14.8 °F 77% 30.09 in 10.0 mi North 11.5 mph - N/A   Overcast
8:15 AM -11.2 °F -30.1 °F -16.6 °F 77% 30.09 in 10.0 mi North 10.4 mph - N/A   Mostly Cloudy
8:35 AM -11.2 °F -29.0 °F -16.6 °F 77% 30.10 in 10.0 mi North 9.2 mph - N/A   Clear
8:55 AM -11.2 °F -31.1 °F -16.6 °F 77% 30.11 in 10.0 mi North 11.5 mph - N/A   Clear
9:15 AM -11.2 °F -31.1 °F -16.6 °F 77% 30.12 in 10.0 mi North 11.5 mph - N/A   Clear
9:35 AM - - - N/A% 30.11 in 10.0 mi North 13.8 mph - N/A   Clear
9:55 AM - - - N/A% 30.12 in 10.0 mi North 11.5 mph - N/A   Clear
10:15 AM -11.2 °F -27.8 °F -18.4 °F 70% 30.14 in 10.0 mi NNW 8.1 mph - N/A   Clear
10:35 AM - - - N/A% 30.15 in 10.0 mi North 10.4 mph - N/A   Clear
10:55 AM -11.2 °F -29.0 °F -16.6 °F 77% 30.16 in 10.0 mi North 9.2 mph - N/A   Clear
11:15 AM -11.2 °F -29.0 °F -16.6 °F 77% 30.16 in 10.0 mi NNW 9.2 mph - N/A   Clear
11:35 AM -11.2 °F -30.1 °F -16.6 °F 77% 30.16 in 10.0 mi North 10.4 mph - N/A   Clear
11:55 AM -11.2 °F -27.8 °F -16.6 °F 77% 30.16 in 10.0 mi NNW 8.1 mph - N/A   Clear
12:15 PM -9.4 °F -24.3 °F -16.6 °F 71% 30.15 in 10.0 mi NNW 6.9 mph - N/A   Clear
12:35 PM -9.4 °F -24.3 °F -14.8 °F 77% 30.16 in 10.0 mi North 6.9 mph - N/A   Clear
12:55 PM -7.6 °F -16.5 °F -13.0 °F 77% 30.14 in 10.0 mi NNE 3.5 mph - N/A   Clear
1:15 PM -7.6 °F -22.1 °F -13.0 °F 77% 30.14 in 10.0 mi North 6.9 mph - N/A   Clear
1:35 PM -7.6 °F -23.4 °F -11.2 °F 84% 30.14 in 10.0 mi North 8.1 mph - N/A   Mostly Cloudy
1:55 PM -7.6 °F -25.7 °F -13.0 °F 77% 30.13 in 10.0 mi North 10.4 mph - N/A   Mostly Cloudy
2:15 PM -7.6 °F -25.7 °F -13.0 °F 77% 30.12 in 10.0 mi North 10.4 mph - N/A   Clear
2:35 PM -7.6 °F -24.6 °F -13.0 °F 77% 30.13 in 10.0 mi North 9.2 mph - N/A   Clear
2:55 PM -7.6 °F -25.7 °F -13.0 °F 77% 30.13 in 10.0 mi North 10.4 mph - N/A   Partly Cloudy
3:15 PM -5.8 °F -23.4 °F -13.0 °F 71% 30.13 in 10.0 mi NNW 10.4 mph - N/A   Clear
3:35 PM -7.6 °F -25.7 °F -13.0 °F 77% 30.12 in 10.0 mi NNW 10.4 mph - N/A   Clear
3:55 PM -7.6 °F -23.4 °F -13.0 °F 77% 30.12 in 10.0 mi North 8.1 mph - N/A   Clear
4:15 PM -7.6 °F -20.6 °F -13.0 °F 77% 30.13 in 10.0 mi NW 5.8 mph - N/A   Clear
4:35 PM -5.8 °F -25.2 °F -13.0 °F 71% 30.13 in 10.0 mi WNW 12.7 mph - N/A   Clear
4:55 PM -4.0 °F -22.1 °F -14.8 °F 60% 30.13 in 10.0 mi WNW 11.5 mph - N/A   Clear
5:15 PM -7.6 °F -20.6 °F -16.6 °F 65% 30.13 in 10.0 mi NW 5.8 mph - N/A   Clear
5:35 PM -7.6 °F -22.1 °F -16.6 °F 65% 30.13 in 10.0 mi WNW 6.9 mph - N/A   Clear
5:55 PM -7.6 °F -27.5 °F -18.4 °F 59% 30.13 in 10.0 mi WNW 12.7 mph - N/A   Clear
6:15 PM -9.4 °F -24.3 °F -18.4 °F 65% 30.12 in 10.0 mi West 6.9 mph - N/A   Clear
6:35 PM -9.4 °F -20.9 °F -18.4 °F 65% 30.13 in 10.0 mi West 4.6 mph - N/A   Clear
6:55 PM -9.4 °F -20.9 °F -18.4 °F 65% 30.13 in 10.0 mi West 4.6 mph - N/A   Clear
7:15 PM -11.2 °F -24.8 °F -18.4 °F 70% 30.13 in 10.0 mi WNW 5.8 mph - N/A   Clear
7:35 PM - - - N/A% 30.12 in 10.0 mi WSW 4.6 mph - N/A   Clear
7:55 PM - - - N/A% 30.12 in 10.0 mi WNW 4.6 mph - N/A   Clear
8:15 PM -14.8 °F -24.8 °F -22.0 °F 70% 30.12 in 10.0 mi SW 3.5 mph - N/A   Clear
8:35 PM -16.6 °F -29.3 °F -22.0 °F 76% 30.11 in 10.0 mi West 4.6 mph - N/A Snow Light Snow
8:55 PM -18.4 °F -31.4 °F -22.0 °F 84% 30.11 in 10.0 mi West 4.6 mph - N/A   Clear
9:15 PM -16.6 °F -29.3 °F -22.0 °F 76% 30.10 in 10.0 mi West 4.6 mph - N/A   Clear
9:35 PM -16.6 °F -34.4 °F -22.0 °F 76% 30.10 in 10.0 mi West 8.1 mph - N/A   Clear
9:55 PM -13.0 °F -30.0 °F -18.4 °F 77% 30.10 in 10.0 mi WNW 8.1 mph - N/A   Clear
10:15 PM -13.0 °F -31.3 °F -18.4 °F 77% 30.09 in 10.0 mi WNW 9.2 mph - N/A   Clear
10:35 PM -13.0 °F -31.3 °F -18.4 °F 77% 30.10 in 10.0 mi WNW 9.2 mph - N/A   Clear
10:55 PM -11.2 °F -31.1 °F -18.4 °F 70% 30.10 in 10.0 mi West 11.5 mph - N/A   Clear
11:15 PM -13.0 °F -32.4 °F -20.2 °F 70% 30.11 in 10.0 mi WNW 10.4 mph - N/A   Clear
11:35 PM -13.0 °F -33.4 °F -20.2 °F 70% 30.10 in 10.0 mi WNW 11.5 mph - N/A   Clear
11:55 PM - - - N/A% 30.10 in 10.0 mi NW 11.5 mph - N/A   Clear